Starlink 34355

operational
NORAD ID: 64306 Int'l Des: 2025-123 Owner: SPXS Country: US Constellation: starlink
LEOCIRCULAR

About Starlink 34355

Description loading...

Live Position

Loading 3D Globe...

Upcoming Passes

Altitude History

Altitude vs Time

uPlot chart will show altitude changes over time

Two-Line Element Set

1 64306U 25123R 26102.20130426 -.00018983 00000-0 -15841-2 0 9993
2 64306 69.9998 110.1410 0005221 268.1947 91.8614 14.98403062 46631
Epoch: Apr 12, 2026 • Age: 15 hours

Current Status

Altitude 577.9 km
Velocity 7.57 km/s
Sub-Earth Point 34.09°N, 135.01°E
Launch Date Jun 8, 2025
Age 0.8 years
Type internet

Technical Details

Classification Payload
Mass 575.00 kg
Dry Mass 530.00 kg
Total Mass 575.00 kg
Length 0.30 m
Diameter 4.10 m
Span 29.00 m
Shape Box + pan
Manufacturer SPXS
Bus Type Starlink V2MO
Phase Status In Orbit
Owner/State SPXS/US

Large Constellations

Loading constellations...